Regional Weather Roundup
Issued by NWS Bismarck, ND

Home | Current Version | Previous Version | Text Only | Print | Product List | Glossary On
Versions: 1 2 3 4 5 6 7 8 9 10 11 12 13 14 15 16 17 18 19 20 21 22 23 24 25 26 27 28 29 30 31 32 33 34 35 36 37 38 39 40 41 42 43 44 45 46 47 48 49 50
000
ASUS43 KBIS 102002
RWRBIS

NWR BROADCAST TEXT
NATIONAL WEATHER SERVICE BISMARCK ND
200 PM CST WED FEB 10 2016

NOTE: "FAIR" INDICATES FEW OR NO CLOUDS BELOW 12,000 FEET WITH NO
SIGNIFICANT WEATHER AND/OR OBSTRUCTIONS TO VISIBILITY.


CITY           SKY/WX    TMP DP  RH WIND       PRES   REMARKS
WILLISTON      CLOUDY    31  25  78 N15       30.07R
MINOT          CLOUDY    17   7  64 NE5       30.07R WCI  10
MINOT AFB      FLURRIES  14   9  79 NE8       30.07R WCI   3
BISMARCK       CLOUDY    25  15  66 NE8       30.02R WCI  16
DICKINSON      CLOUDY    37  28  70 N16       29.95R
GARRISON         N/A     24  16  71 N10       30.02R WCI  14
HETTINGER ARPT SUNNY     48  31  51 NW22G29   29.96R
JAMESTOWN      LGT SNOW  10   4  76 E10       30.06R WCI  -4
CARRINGTON     LGT SNOW   9   7  92 E10       30.09R WCI  -6
HAZEN          CLOUDY    28  18  64 N13       30.04R WCI  18
LINTON         CLOUDY    23  18  80 E7        30.01R WCI  15
MANDAN         CLOUDY    23  16  74 NE7       30.01R WCI  15
OAKES          FLURRIES  10   7  85 E15       30.04R WCI  -6
STANLEY        CLOUDY    23  21  93 N9        30.04R WCI  13
WATFORD CITY   CLOUDY    32  27  80 NW15      30.05R
$$

CITY           SKY/WX    TMP DP  RH WIND       PRES   REMARKS
GRAND FORKS    CLOUDY    10  -1  61 NE9       30.18R WCI  -3
GRAND FORKS AF CLOUDY    10  -2  59 NE7       30.17R WCI  -2
DEVILS LAKE    LGT SNOW   7   2  80 E12       30.12R WCI  -8
FARGO          CLOUDY    15   2  56 NE5       30.13R WCI   8
CAVALIER       FAIR       7   0  72 NE6       30.21R WCI  -3
GRAFTON        MOCLDY     7   0  72 NE7       30.21R WCI  -5
GWINNER        CLOUDY    12   9  85 E13       30.06R WCI  -3
LANGDON        CLOUDY     7   0  72 NE9       30.13R WCI  -7
$$

CITY           SKY/WX    TMP DP  RH WIND       PRES   REMARKS
ABERDEEN       CLOUDY    18  12  77 E12       30.01R WCI   5
MOBRIDGE       CLOUDY    33  24  69 N12       29.92R
BUFFALO          N/A     51  29  42 NW20G28   29.90R
RAPID CITY     SUNNY     63  21  20 NW26G38   29.92R
SIDNEY         CLOUDY    37  30  75 N15       30.06R
GLENDIVE       CLOUDY    43  32  65 N15       30.05S
$$

CITY           SKY/WX    TMP DP  RH WIND       PRES   REMARKS
BILLINGS       PTSUNNY   63  17  17 NW21G28   30.07F
$$




USA.gov is the U.S. government's official web portal to all federal, state and local government web resources and services.